GW0392 Weather Reports


Display with metric or nautical units.
time (UTC)temp
F
wind
direction
speed
MPH
gust
MPH
rain 1hr
in
rain 24hr
in
rain mn
in
humidity
%
barometer
mb
20260509042657 52 225 0.0 0.0 0.00 0.00 0.00 95 1013.5
20260509042153 52 225 0.0 0.0 0.00 0.00 0.00 95 1013.4
20260509041650 52 224 0.0 0.0 0.00 0.00 0.00 95 1013.3
20260509041148 52 224 0.0 0.0 0.00 0.00 0.00 95 1013.4
20260509040646 52 224 0.0 0.0 0.00 0.00 0.00 95 1013.4
20260509040142 53 224 0.0 0.0 0.00 0.00 0.00 94 1013.6
20260509035639 53 223 0.0 0.0 0.00 0.00 0.00 94 1013.5
20260509035136 53 225 0.0 0.0 0.00 0.00 0.00 93 1013.7
20260509034634 53 225 0.0 0.0 0.00 0.00 0.00 93 1013.6
20260509034131 53 225 0.0 0.0 0.00 0.00 0.00 93 1013.4
20260509033627 54 225 0.0 0.0 0.00 0.00 0.00 93 1013.4
20260509033124 54 225 0.0 0.0 0.00 0.00 0.00 92 1013.5
20260509032622 54 225 0.0 0.0 0.00 0.00 0.00 92 1013.5
20260509032118 54 225 0.0 0.0 0.00 0.00 0.00 92 1013.6
20260509031617 54 225 0.0 0.0 0.00 0.00 0.00 92 1013.6
20260509031114 54 224 0.0 0.0 0.00 0.00 0.00 91 1013.4
20260509030612 55 223 0.0 0.0 0.00 0.00 0.00 91 1013.5
20260509030108 55 223 0.0 0.0 0.00 0.00 0.00 91 1013.8
20260509025605 55 224 0.0 0.0 0.00 0.00 0.00 91 1013.9
20260509025100 55 224 0.0 0.0 0.00 0.00 0.00 90 1013.7
20260509024556 55 225 0.0 0.0 0.00 0.00 0.00 89 1013.8
20260509024052 55 225 0.0 0.0 0.00 0.00 0.00 89 1013.8
20260509023550 56 225 0.0 0.0 0.00 0.00 0.00 88 1013.8
20260509023047 56 225 0.0 0.0 0.00 0.00 0.00 87 1013.8
20260509022543 56 225 0.0 0.0 0.00 0.00 0.00 87 1013.7
20260509022041 56 225 0.0 0.0 0.00 0.00 0.00 86 1013.7
20260509021538 57 225 0.0 0.0 0.00 0.00 0.00 86 1013.4
20260509021035 57 225 0.0 0.0 0.00 0.00 0.00 85 1013.3
20260509020533 57 225 0.0 0.0 0.00 0.00 0.00 86 1013.3
20260509020030 57 225 0.0 0.0 0.00 0.00 0.00 85 1013.5
20260509015529 57 225 0.0 0.0 0.00 0.00 0.00 85 1013.2
20260509015026 57 225 0.0 0.0 0.00 0.00 0.00 84 1013.3
20260509014522 58 225 0.0 0.0 0.00 0.00 0.00 83 1013.4
20260509014019 58 225 0.0 0.0 0.00 0.00 0.00 83 1013.2
20260509013516 58 225 0.0 0.0 0.00 0.00 0.00 84 1013.1
20260509013011 58 225 0.0 0.0 0.00 0.00 0.00 83 1013.2
20260509012508 59 225 0.0 0.0 0.00 0.00 0.00 83 1013.2
20260509012005 59 225 0.0 0.0 0.00 0.00 0.00 81 1013.2
20260509011503 59 225 0.0 0.0 0.00 0.00 0.00 81 1013.2
20260509011000 60 225 0.0 0.0 0.00 0.00 0.00 80 1013.4
20260509010458 60 225 0.0 0.0 0.00 0.00 0.00 80 1013.5
20260509005954 60 225 0.0 0.0 0.00 0.00 0.00 78 1013.3
20260509005452 61 225 0.0 0.0 0.00 0.00 0.00 78 1013.4
20260509004952 61 225 0.0 0.0 0.00 0.00 0.00 77 1013.4
20260509004449 62 226 0.0 0.0 0.00 0.00 0.00 75 1013.3
20260509003947 62 226 0.0 0.0 0.00 0.00 0.00 75 1013.3
20260509003445 62 226 0.0 0.0 0.00 0.00 0.00 75 1013.3
20260509002941 63 226 0.0 0.0 0.00 0.00 0.00 73 1013.2
20260509002439 63 226 0.0 0.0 0.00 0.00 0.00 73 1013.2
20260509001936 64 226 0.0 0.0 0.00 0.00 0.00 72 1013.3
20260509001432 64 227 0.0 0.0 0.00 0.00 0.00 71 1013.2
20260509000929 65 227 0.0 0.0 0.00 0.00 0.00 70 1013.3
20260509000427 65 229 0.0 0.0 0.00 0.00 0.00 67 1013.3
20260508235923 66 229 0.0 0.0 0.00 0.00 0.00 67 1013.2
20260508235421 66 229 0.0 0.0 0.00 0.00 0.00 64 1013.0
20260508234917 67 230 0.0 0.0 0.00 0.00 0.00 65 1013.1
20260508234414 67 227 0.0 0.0 0.00 0.00 0.00 62 1013.1
20260508233912 68 220 1.0 1.0 0.00 0.00 0.00 57 1013.0
20260508233411 68 220 0.0 1.0 0.00 0.00 0.00 59 1013.1
20260508232908 68 224 0.0 2.0 0.00 0.00 0.00 52 1012.7
20260508232404 68 207 1.0 2.0 0.00 0.00 0.00 54 1013.0
20260508231902 68 224 0.0 0.0 0.00 0.00 0.00 52 1012.9
20260508231359 69 227 0.0 1.0 0.00 0.00 0.00 52 1012.9
20260508230856 69 229 0.0 1.0 0.00 0.00 0.00 52 1012.9
20260508230352 69 221 3.0 5.0 0.00 0.00 0.00 51 1013.1
20260508225850 69 225 0.0 1.0 0.00 0.00 0.00 52 1013.3
20260508225346 69 204 4.0 6.0 0.00 0.00 0.00 51 1013.3
20260508224844 69 225 1.0 1.0 0.00 0.00 0.00 59 1013.1
20260508224341 69 202 2.0 3.0 0.00 0.00 0.00 52 1013.2
20260508223839 69 226 1.0 1.0 0.00 0.00 0.00 59 1013.4
20260508223336 69 226 3.0 3.0 0.00 0.00 0.00 51 1013.3
20260508222833 69 225 0.0 1.0 0.00 0.00 0.00 56 1013.3
20260508222330 69 226 0.0 0.0 0.00 0.00 0.00 51 1013.3
20260508221827 69 226 0.0 2.0 0.00 0.00 0.00 49 1013.4
20260508221322 69 215 2.0 2.0 0.00 0.00 0.00 50 1013.2
20260508220819 69 221 1.0 2.0 0.00 0.00 0.00 51 1013.2
20260508220315 69 227 0.0 0.0 0.00 0.00 0.00 53 1013.5
20260508215812 69 219 0.0 2.0 0.00 0.00 0.00 48 1013.4
20260508215309 70 219 1.0 2.0 0.00 0.00 0.00 49 1013.3
20260508214806 70 224 0.0 0.0 0.00 0.00 0.00 47 1013.3
20260508214303 70 225 0.0 0.0 0.00 0.00 0.00 52 1013.3
20260508213759 70 237 0.0 1.0 0.00 0.00 0.00 48 1013.2
20260508213256 70 242 1.0 1.0 0.00 0.00 0.00 54 1013.1
20260508212753 70 230 0.0 1.0 0.00 0.00 0.00 46 1013.0
20260508212249 70 232 0.0 0.0 0.00 0.00 0.00 44 1013.1
20260508211745 70 228 0.0 0.0 0.00 0.00 0.00 47 1013.2
20260508211240 70 225 0.0 1.0 0.00 0.00 0.00 45 1013.3
20260508210738 70 226 0.0 1.0 0.00 0.00 0.00 46 1013.4
20260508210235 71 228 0.0 0.0 0.00 0.00 0.00 44 1013.6
20260508205732 71 223 1.0 2.0 0.00 0.00 0.00 49 1013.5
20260508205228 71 227 0.0 0.0 0.00 0.00 0.00 44 1013.5
20260508204725 71 307 1.0 1.0 0.00 0.00 0.00 43 1013.7
20260508204221 71 226 0.0 1.0 0.00 0.00 0.00 49 1013.8
20260508203717 70 166 1.0 3.0 0.00 0.00 0.00 41 1013.7
20260508203213 70 197 1.0 2.0 0.00 0.00 0.00 43 1013.7
20260508202710 70 225 0.0 1.0 0.00 0.00 0.00 42 1013.7
20260508202207 70 216 1.0 1.0 0.00 0.00 0.00 50 1013.7
20260508201704 70 226 0.0 1.0 0.00 0.00 0.00 44 1013.6
20260508201200 70 223 1.0 2.0 0.00 0.00 0.00 40 1013.7
20260508200657 69 219 1.0 2.0 0.00 0.00 0.00 39 1013.7
20260508200153 70 225 0.0 2.0 0.00 0.00 0.00 41 1013.9
20260508195650 70 210 0.0 2.0 0.00 0.00 0.00 39 1014.1
20260508195147 70 228 0.0 1.0 0.00 0.00 0.00 42 1014.1
20260508194643 70 223 1.0 1.0 0.00 0.00 0.00 42 1014.3
20260508194140 70 219 1.0 1.0 0.00 0.00 0.00 47 1014.2
20260508193637 70 260 1.0 2.0 0.00 0.00 0.00 42 1014.3
20260508193134 69 233 1.0 2.0 0.00 0.00 0.00 41 1014.6
20260508192631 69 226 0.0 2.0 0.00 0.00 0.00 47 1014.3
20260508192128 70 224 0.0 3.0 0.00 0.00 0.00 43 1014.5
20260508191624 70 226 0.0 1.0 0.00 0.00 0.00 46 1014.5
20260508191121 69 226 0.0 1.0 0.00 0.00 0.00 47 1014.8
20260508190619 69 234 0.0 1.0 0.00 0.00 0.00 46 1014.6
20260508190115 70 241 0.0 0.0 0.00 0.00 0.00 45 1014.6
20260508185612 69 234 0.0 0.0 0.00 0.00 0.00 44 1014.9
20260508185109 69 237 1.0 2.0 0.00 0.00 0.00 41 1014.8
20260508184607 70 209 1.0 1.0 0.00 0.00 0.00 40 1015.0
20260508184104 71 233 0.0 2.0 0.00 0.00 0.00 41 1015.0
20260508183600 71 235 0.0 0.0 0.00 0.00 0.00 40 1015.3
20260508183056 71 228 0.0 0.0 0.00 0.00 0.00 41 1015.4
20260508182552 71 228 0.0 2.0 0.00 0.00 0.00 39 1015.8
20260508182049 71 236 0.0 2.0 0.00 0.00 0.00 46 1015.7
20260508181544 71 230 0.0 1.0 0.00 0.00 0.00 40 1015.8
20260508181042 71 231 2.0 2.0 0.00 0.00 0.00 38 1015.9
20260508180538 71 219 1.0 3.0 0.00 0.00 0.00 39 1016.0
20260508180035 71 231 0.0 2.0 0.00 0.00 0.00 41 1015.9
20260508175531 70 299 2.0 2.0 0.00 0.00 0.00 41 1015.8
20260508175029 69 224 2.0 3.0 0.00 0.00 0.00 39 1015.9
20260508174526 69 205 1.0 2.0 0.00 0.00 0.00 43 1016.2
20260508174023 69 205 2.0 3.0 0.00 0.00 0.00 40 1016.2
20260508173520 69 237 1.0 5.0 0.00 0.00 0.00 41 1016.4
20260508173016 70 197 1.0 1.0 0.00 0.00 0.00 39 1016.3
20260508172513 70 275 1.0 1.0 0.00 0.00 0.00 42 1016.5
20260508172009 70 299 3.0 3.0 0.00 0.00 0.00 41 1016.4
20260508171506 70 227 1.0 1.0 0.00 0.00 0.00 47 1016.7
20260508171003 70 219 0.0 0.0 0.00 0.00 0.00 45 1016.6
20260508170500 68 239 0.0 1.0 0.00 0.00 0.00 44 1016.5
20260508165957 67 208 1.0 2.0 0.00 0.00 0.00 43 1016.6
20260508165455 67 257 1.0 2.0 0.00 0.00 0.00 43 1016.7
20260508164950 67 233 1.0 3.0 0.00 0.00 0.00 41 1016.7
20260508164448 68 222 1.0 2.0 0.00 0.00 0.00 42 1017.0
20260508163944 67 233 1.0 2.0 0.00 0.00 0.00 42 1017.0
20260508163443 66 239 0.0 2.0 0.00 0.00 0.00 44 1017.5
20260508162938 66 250 1.0 1.0 0.00 0.00 0.00 44 1017.3
20260508162436 67 225 0.0 1.0 0.00 0.00 0.00 45 1017.5
20260508161932 66 210 1.0 6.0 0.00 0.00 0.00 43 1017.8
20260508161429 67 207 0.0 2.0 0.00 0.00 0.00 47 1017.7
20260508160927 67 317 3.0 3.0 0.00 0.00 0.00 43 1017.5
20260508160426 66 219 1.0 1.0 0.00 0.00 0.00 47 1017.9
20260508155921 66 231 0.0 1.0 0.00 0.00 0.00 48 1017.9
20260508155418 66 221 1.0 1.0 0.00 0.00 0.00 54 1018.2
20260508154915 65 228 1.0 1.0 0.00 0.00 0.00 52 1018.3
20260508154413 65 222 0.0 1.0 0.00 0.00 0.00 53 1018.2
20260508153909 64 224 0.0 1.0 0.00 0.00 0.00 56 1018.2
20260508153407 64 236 1.0 2.0 0.00 0.00 0.00 53 1018.2
20260508152902 65 235 1.0 2.0 0.00 0.00 0.00 55 1018.0
20260508152359 64 225 0.0 1.0 0.00 0.00 0.00 52 1018.2
20260508151855 64 229 0.0 0.0 0.00 0.00 0.00 53 1018.6
20260508151353 64 227 1.0 2.0 0.00 0.00 0.00 50 1018.6
20260508150849 64 228 1.0 2.0 0.00 0.00 0.00 55 1018.3
20260508150346 63 205 1.0 2.0 0.00 0.00 0.00 55 1018.4
20260508145842 63 220 1.0 2.0 0.00 0.00 0.00 65 1018.4
20260508145338 63 215 1.0 2.0 0.00 0.00 0.00 54 1018.4
20260508144835 63 212 1.0 3.0 0.00 0.00 0.00 55 1018.6
20260508144333 64 225 0.0 1.0 0.00 0.00 0.00 57 1018.5
20260508143830 62 239 0.0 1.0 0.00 0.00 0.00 60 1018.7
20260508143327 62 237 0.0 1.0 0.00 0.00 0.00 60 1018.6
20260508142824 61 239 0.0 0.0 0.00 0.00 0.00 63 1018.7
20260508142321 62 236 0.0 1.0 0.00 0.00 0.00 62 1018.9
20260508141817 63 236 1.0 1.0 0.00 0.00 0.00 60 1018.9
20260508141314 62 233 0.0 2.0 0.00 0.00 0.00 59 1018.7
20260508140812 62 222 1.0 1.0 0.00 0.00 0.00 59 1018.6
20260508140308 61 231 0.0 2.0 0.00 0.00 0.00 62 1018.8
20260508135804 61 235 0.0 0.0 0.00 0.00 0.00 66 1018.7
20260508135301 59 236 0.0 0.0 0.00 0.00 0.00 65 1018.9
20260508134756 60 237 0.0 0.0 0.00 0.00 0.00 72 1018.9
20260508134254 60 233 0.0 0.0 0.00 0.00 0.00 74 1018.9
20260508133750 58 235 0.0 0.0 0.00 0.00 0.00 79 1018.8
20260508133248 58 231 0.0 0.0 0.00 0.00 0.00 81 1018.7
20260508132745 57 244 0.0 0.0 0.00 0.00 0.00 81 1018.6
20260508132243 53 225 0.0 0.0 0.00 0.00 0.00 90 1018.6
20260508131738 51 226 0.0 0.0 0.00 0.00 0.00 97 1018.6
20260508131235 51 227 0.0 0.0 0.00 0.00 0.00 99 1018.8
20260508130731 51 228 0.0 0.0 0.00 0.00 0.00 99 1018.8
20260508130229 50 227 0.0 0.0 0.00 0.00 0.00 99 1018.8
20260508125724 50 227 0.0 0.0 0.00 0.00 0.00 99 1018.9
20260508125221 49 224 0.0 0.0 0.00 0.00 0.00 99 1019.0
20260508124719 49 227 0.0 0.0 0.00 0.00 0.00 99 1018.8
20260508124216 49 227 0.0 0.0 0.00 0.00 0.00 99 1019.0
20260508123714 48 227 0.0 0.0 0.00 0.00 0.00 99 1018.8
20260508123212 48 229 0.0 0.0 0.00 0.00 0.00 99 1018.9
20260508122708 48 228 0.0 0.0 0.00 0.00 0.00 99 1018.9
20260508122205 47 228 0.0 0.0 0.00 0.00 0.00 99 1018.8
20260508121702 47 229 0.0 0.0 0.00 0.00 0.00 99 1018.6
20260508121201 47 229 0.0 0.0 0.00 0.00 0.00 99 1018.4
20260508120658 46 231 0.0 0.0 0.00 0.00 0.00 99 1018.6
20260508120156 46 230 0.0 0.0 0.00 0.00 0.00 99 1018.6
20260508115653 46 229 0.0 0.0 0.00 0.00 0.00 99 1018.7
20260508115150 46 229 0.0 0.0 0.00 0.00 0.00 99 1018.5
20260508114647 45 226 0.0 0.0 0.00 0.00 0.00 99 1018.4
20260508114143 45 225 0.0 0.0 0.00 0.00 0.00 99 1018.3
20260508113640 45 227 0.0 0.0 0.00 0.00 0.00 99 1018.1
20260508113139 45 226 0.0 0.0 0.00 0.00 0.00 99 1017.9
20260508112634 45 226 0.0 0.0 0.00 0.00 0.00 99 1017.8
20260508112132 45 226 0.0 0.0 0.00 0.00 0.00 99 1017.9
20260508111628 45 226 0.0 0.0 0.00 0.00 0.00 99 1017.7
20260508111125 45 225 0.0 0.0 0.00 0.00 0.00 99 1017.3
20260508110623 45 226 0.0 0.0 0.00 0.00 0.00 99 1017.5
20260508110119 45 226 0.0 0.0 0.00 0.00 0.00 99 1017.7
20260508105614 45 225 0.0 0.0 0.00 0.00 0.00 99 1017.3
20260508105111 45 226 0.0 0.0 0.00 0.00 0.00 99 1017.4
20260508104609 45 219 0.0 0.0 0.00 0.00 0.00 99 1017.3
20260508104105 45 228 0.0 0.0 0.00 0.00 0.00 99 1017.1
20260508103603 45 228 0.0 0.0 0.00 0.00 0.00 99 1017.0
20260508103100 45 228 0.0 0.0 0.00 0.00 0.00 99 1016.9
20260508102557 45 228 0.0 0.0 0.00 0.00 0.00 99 1016.7
20260508102055 45 228 0.0 0.0 0.00 0.00 0.00 99 1016.7
20260508101552 45 228 0.0 0.0 0.00 0.00 0.00 99 1016.7
20260508101049 45 228 0.0 0.0 0.00 0.00 0.00 99 1016.6
20260508100547 45 228 0.0 0.0 0.00 0.00 0.00 99 1016.6
20260508100043 45 228 0.0 0.0 0.00 0.00 0.00 99 1016.8
20260508095541 46 228 0.0 0.0 0.00 0.00 0.00 99 1016.5
20260508095037 46 228 0.0 0.0 0.00 0.00 0.00 99 1016.5
20260508094535 46 228 0.0 0.0 0.00 0.00 0.00 99 1016.7
20260508094032 46 228 0.0 0.0 0.00 0.00 0.00 99 1016.7
20260508093528 46 228 0.0 0.0 0.00 0.00 0.00 99 1016.6
20260508093026 46 228 0.0 0.0 0.00 0.00 0.00 99 1016.5
20260508092523 46 228 0.0 0.0 0.00 0.00 0.00 99 1016.6
20260508092022 46 228 0.0 0.0 0.00 0.00 0.00 99 1016.6
20260508091519 46 228 0.0 0.0 0.00 0.00 0.00 99 1016.5
20260508091016 46 228 0.0 0.0 0.00 0.00 0.00 99 1016.4
20260508090514 45 228 0.0 0.0 0.00 0.00 0.00 99 1016.5
20260508090010 46 228 0.0 0.0 0.00 0.00 0.00 99 1016.4
20260508085507 46 228 0.0 0.0 0.00 0.00 0.00 99 1016.2
20260508085004 46 228 0.0 0.0 0.00 0.00 0.00 99 1016.1
20260508084501 46 228 0.0 0.0 0.00 0.00 0.00 99 1016.4
20260508083958 46 228 0.0 0.0 0.00 0.00 0.00 99 1016.3
20260508083455 46 228 0.0 0.0 0.00 0.00 0.00 99 1016.2
20260508082950 47 228 0.0 0.0 0.00 0.00 0.00 99 1016.3
20260508082447 47 229 0.0 0.0 0.00 0.00 0.00 99 1016.3
20260508081945 47 229 0.0 0.0 0.00 0.00 0.00 99 1016.2
20260508081442 47 229 0.0 0.0 0.00 0.00 0.00 99 1016.4
20260508080938 47 228 0.0 0.0 0.00 0.00 0.00 99 1016.4
20260508080436 47 228 0.0 0.0 0.00 0.00 0.00 99 1016.4
20260508075933 47 228 0.0 0.0 0.00 0.00 0.00 99 1016.3
20260508075430 47 228 0.0 0.0 0.00 0.00 0.00 99 1016.2
20260508074927 47 228 0.0 0.0 0.00 0.00 0.00 99 1016.4
20260508074425 47 224 0.0 0.0 0.00 0.00 0.00 99 1016.3
20260508073921 47 223 0.0 0.0 0.00 0.00 0.00 99 1016.4
20260508073419 47 229 0.0 0.0 0.00 0.00 0.00 99 1016.4
20260508072916 47 229 0.0 0.0 0.00 0.00 0.00 99 1016.4
20260508072412 47 229 0.0 0.0 0.00 0.00 0.00 99 1016.6
20260508071909 48 229 0.0 0.0 0.00 0.00 0.00 99 1016.2
20260508071408 48 229 0.0 0.0 0.00 0.00 0.00 99 1016.5
20260508070905 48 229 0.0 0.0 0.00 0.00 0.00 99 1016.4
20260508070403 48 229 0.0 0.0 0.00 0.00 0.00 99 1016.7
20260508065900 48 229 0.0 0.0 0.00 0.00 0.00 99 1016.6
20260508065358 48 228 0.0 0.0 0.00 0.00 0.00 99 1016.6
20260508064856 48 225 0.0 0.0 0.00 0.00 0.00 99 1016.5
20260508064353 48 228 0.0 0.0 0.00 0.00 0.00 99 1016.6
20260508063851 49 229 0.0 0.0 0.00 0.00 0.00 99 1016.6
20260508063348 49 225 0.0 0.0 0.00 0.00 0.00 99 1016.8
20260508062845 48 229 0.0 0.0 0.00 0.00 0.00 99 1016.7
20260508062343 48 229 0.0 0.0 0.00 0.00 0.00 99 1016.8
20260508061840 48 229 0.0 0.0 0.00 0.00 0.00 99 1016.8
20260508061337 48 229 0.0 0.0 0.00 0.00 0.00 99 1016.6
20260508060833 48 229 0.0 0.0 0.00 0.00 0.00 99 1016.8
20260508060332 48 226 0.0 0.0 0.00 0.00 0.00 99 1016.7
20260508055826 48 229 0.0 0.0 0.00 0.00 0.00 99 1016.8
20260508055324 48 225 0.0 0.0 0.00 0.00 0.00 99 1016.6
20260508054820 48 225 0.0 0.0 0.00 0.00 0.00 99 1016.5
20260508054318 48 227 0.0 0.0 0.00 0.00 0.00 99 1016.8
20260508053815 48 230 0.0 0.0 0.00 0.00 0.00 99 1016.7
20260508053312 49 225 0.0 0.0 0.00 0.00 0.00 99 1016.6
20260508052809 49 225 0.0 0.0 0.00 0.00 0.00 99 1016.6
20260508052307 49 225 0.0 0.0 0.00 0.00 0.00 99 1016.6
20260508051803 49 225 0.0 0.0 0.00 0.00 0.00 99 1016.6
20260508051258 49 225 0.0 0.0 0.00 0.00 0.00 99 1016.6
20260508050755 49 225 0.0 0.0 0.00 0.00 0.00 99 1016.5
20260508050252 49 225 0.0 0.0 0.00 0.00 0.00 99 1016.4
20260508045747 49 224 0.0 0.0 0.00 0.00 0.00 99 1016.5
20260508045245 49 224 0.0 0.0 0.00 0.00 0.00 99 1016.5
20260508044743 49 225 0.0 0.0 0.00 0.00 0.00 98 1016.4
20260508044240 50 224 0.0 0.0 0.00 0.00 0.00 98 1016.6
20260508043735 50 225 0.0 0.0 0.00 0.00 0.00 98 1016.6
20260508043233 50 225 0.0 0.0 0.00 0.00 0.00 98 1016.4